EW9598 Weather Reports


time (UTC)temp
F
wind
direction
speed
knots
gust
knots
rain 1hr
in
rain 24hr
in
rain mn
in
humidity
%
barometer
mb
20260504150931 76 96 0.0 1.7 0.00 0.00 0.00 55 1006.0
20260504150700 76 128 0.0 4.3 0.00 0.00 0.00 56 1006.0
20260504141330 76 8 0.0 1.7 0.00 0.00 0.00 59 1006.0
20260504140814 76 139 0.0 1.7 0.00 0.00 0.00 61 1006.0
20260504140314 76 357 1.7 1.7 0.00 0.00 0.00 58 1006.0
20260504130729 70 197 0.0 1.7 0.00 0.00 0.00 71 1006.6
20260504130242 69 210 0.0 1.7 0.00 0.00 0.00 70 1007.0
20260504120110 56 99 0.0 0.0 0.00 0.00 0.00 95 1007.7
20260504110434 54 89 0.0 0.0 0.00 0.00 0.00 95 1007.0
20260504100202 56 109 0.0 0.0 0.00 0.00 0.00 89 1007.0
20260504081524 60 112 0.0 0.0 0.00 0.00 0.00 77 1006.3
20260504081229 60 278 0.0 0.0 0.00 0.00 0.00 77 1006.3
20260504080502 61 3 0.0 0.0 0.00 0.00 0.00 76 1006.6
20260504050200 62 19 0.0 1.7 0.00 0.00 0.00 71 1007.3
20260504045635 62 222 0.0 1.7 0.00 0.00 0.00 71 1007.7
20260504045129 62 67 0.0 0.0 0.00 0.00 0.00 71 1007.7
20260504044624 62 113 0.0 0.0 0.00 0.00 0.00 71 1007.7
20260504044114 63 147 0.0 1.7 0.00 0.00 0.00 70 1007.7
20260504043613 63 58 0.0 1.7 0.00 0.00 0.00 69 1007.7
20260504043113 63 75 0.0 1.7 0.00 0.00 0.00 70 1007.7
20260504042836 63 165 0.0 1.7 0.00 0.00 0.00 70 1008.0
20260504042319 63 139 0.0 1.7 0.00 0.00 0.00 69 1008.0
20260504041606 63 73 0.0 0.0 0.00 0.00 0.00 69 1008.0
20260504041321 63 35 0.0 4.3 0.00 0.00 0.00 68 1008.0
20260504040605 63 9 0.0 4.3 0.00 0.00 0.00 69 1008.3
20260504040053 63 111 0.0 0.0 0.00 0.00 0.00 69 1008.3
20260504035807 63 135 0.0 1.7 0.00 0.00 0.00 69 1008.0
20260504035035 63 126 0.0 1.7 0.00 0.00 0.00 67 1008.3
20260504034529 63 67 0.0 0.0 0.00 0.00 0.00 68 1008.3
20260504034029 63 29 0.0 0.0 0.00 0.00 0.00 68 1008.3
20260504033528 63 223 0.0 1.7 0.00 0.00 0.00 68 1008.3
20260504033244 63 352 0.0 0.0 0.00 0.00 0.00 67 1008.7
20260504032727 63 118 0.0 0.0 0.00 0.00 0.00 67 1008.3
20260504031954 63 114 0.0 1.7 0.00 0.00 0.00 66 1008.3
20260504031714 63 47 0.0 1.7 0.00 0.00 0.00 67 1008.3
20260504030933 63 4 0.0 0.0 0.00 0.00 0.00 66 1008.3
20260504030436 63 127 0.0 1.7 0.00 0.00 0.00 66 1008.3
20260504025928 64 79 0.0 1.7 0.00 0.00 0.00 65 1008.3
20260504025428 64 19 0.0 0.0 0.00 0.00 0.00 64 1008.3
20260504024928 64 98 0.0 1.7 0.00 0.00 0.00 65 1008.3
20260504024412 64 136 0.0 1.7 0.00 0.00 0.00 64 1008.3
20260504023913 64 164 0.0 1.7 0.00 0.00 0.00 64 1008.3
20260504023358 65 4 0.0 1.7 0.00 0.00 0.00 63 1008.3
20260504022853 64 358 0.0 1.7 0.00 0.00 0.00 62 1008.3
20260504022336 64 135 0.0 0.0 0.00 0.00 0.00 63 1008.0
20260504021832 64 156 0.0 1.7 0.00 0.00 0.00 63 1008.0
20260504021317 65 209 0.0 1.7 0.00 0.00 0.00 62 1008.0
20260504020811 65 96 0.0 0.0 0.00 0.00 0.00 62 1008.0
20260504020310 65 129 0.0 0.0 0.00 0.00 0.00 62 1008.0
20260504015755 65 27 0.0 0.0 0.00 0.00 0.00 62 1008.0
20260504015229 65 126 0.0 0.0 0.00 0.00 0.00 61 1008.0
20260504014959 65 108 0.0 0.0 0.00 0.00 0.00 60 1008.0
20260504014229 65 123 0.0 0.0 0.00 0.00 0.00 60 1008.0
20260504013732 66 159 0.0 0.0 0.00 0.00 0.00 60 1008.0
20260504013228 66 90 0.0 0.0 0.00 0.00 0.00 60 1007.7
20260504012712 66 93 0.0 0.0 0.00 0.00 0.00 58 1008.0
20260504012217 67 90 0.0 0.0 0.00 0.00 0.00 57 1008.0
20260504011657 67 111 0.0 0.0 0.00 0.00 0.00 55 1008.0
20260504011156 68 157 0.0 0.0 0.00 0.00 0.00 55 1007.7
20260504010916 68 85 0.0 0.0 0.00 0.00 0.00 56 1007.7
20260504010416 69 91 0.0 0.0 0.00 0.00 0.00 54 1008.0
20260504005648 69 110 0.0 0.0 0.00 0.00 0.00 53 1008.0
20260504005133 70 75 0.0 4.3 0.00 0.00 0.00 52 1007.7
20260504004627 71 312 0.0 4.3 0.00 0.00 0.00 50 1007.7
20260504004126 71 83 0.0 0.0 0.00 0.00 0.00 51 1007.7
20260504003622 71 133 0.0 0.0 0.00 0.00 0.00 51 1007.7
20260504003108 72 121 0.0 1.7 0.00 0.00 0.00 49 1007.7
20260504002829 72 58 0.0 1.7 0.00 0.00 0.00 48 1007.7
20260504002106 73 335 0.0 4.3 0.00 0.00 0.00 47 1007.7
20260504001829 73 55 0.0 4.3 0.00 0.00 0.00 46 1008.0
20260504001041 73 120 0.0 4.3 0.00 0.00 0.00 46 1007.7
20260504000819 74 21 0.0 4.3 0.00 0.00 0.00 46 1007.7
20260504000029 74 103 0.0 0.0 0.00 0.00 0.00 45 1007.7
20260503235534 74 105 0.0 1.7 0.00 0.00 0.00 45 1008.0
20260503235028 74 112 0.0 4.3 0.00 0.00 0.00 45 1008.0
20260503234532 75 54 0.0 4.3 0.00 0.00 0.00 44 1008.0
20260503234029 75 123 0.0 4.3 0.00 0.00 0.00 44 1007.7
20260503233532 75 104 0.0 4.3 0.00 0.00 0.00 43 1008.0
20260503233013 75 125 0.0 7.0 0.00 0.00 0.00 42 1008.0
20260503232519 76 354 0.9 7.0 0.00 0.00 0.00 41 1008.0
20260503232002 76 324 0.9 4.3 0.00 0.00 0.00 41 1008.0
20260503231500 76 163 0.0 4.3 0.00 0.00 0.00 41 1008.0
20260503230955 76 138 0.0 4.3 0.00 0.00 0.00 42 1008.0
20260503230446 76 104 0.9 7.0 0.00 0.00 0.00 41 1008.0
20260503225950 76 116 2.6 8.7 0.00 0.00 0.00 41 1008.0
20260503225433 76 358 1.7 8.7 0.00 0.00 0.00 41 1008.0
20260503224927 76 48 0.0 8.7 0.00 0.00 0.00 41 1008.0
20260503224428 76 195 0.0 8.7 0.00 0.00 0.00 40 1008.0
20260503223923 76 168 0.0 8.7 0.00 0.00 0.00 41 1008.0
20260503223407 76 147 3.5 8.7 0.00 0.00 0.00 41 1008.0
20260503222902 76 175 0.0 8.7 0.00 0.00 0.00 41 1008.0
20260503222405 76 325 1.7 4.3 0.00 0.00 0.00 40 1008.0
20260503221850 76 21 0.0 11.3 0.00 0.00 0.00 41 1008.3
20260503221350 76 333 1.7 11.3 0.00 0.00 0.00 40 1008.0
20260503220845 77 301 7.0 8.7 0.00 0.00 0.00 40 1007.7
20260503220330 77 109 0.0 7.0 0.00 0.00 0.00 42 1008.0
20260503215829 77 130 0.0 7.0 0.00 0.00 0.00 42 1008.3
20260503215324 77 123 1.7 7.0 0.00 0.00 0.00 41 1008.3
20260503214811 77 71 0.0 7.0 0.00 0.00 0.00 41 1008.3
20260503214546 77 304 0.9 4.3 0.00 0.00 0.00 39 1008.0
20260503213815 77 51 1.7 7.0 0.00 0.00 0.00 41 1008.3
20260503213310 76 3 2.6 7.0 0.00 0.00 0.00 40 1008.3
20260503212805 76 338 2.6 7.0 0.00 0.00 0.00 41 1008.3
20260503212253 77 272 0.0 11.3 0.00 0.00 0.00 41 1008.3
20260503211747 76 89 0.0 11.3 0.00 0.00 0.00 40 1008.3
20260503211237 77 351 2.6 8.7 0.00 0.00 0.00 38 1008.7
20260503210737 77 35 0.9 7.0 0.00 0.00 0.00 38 1009.0
20260503210233 78 88 0.0 8.7 0.00 0.00 0.00 40 1009.0
20260503205957 78 4 1.7 8.7 0.00 0.00 0.00 42 1009.4
20260503205213 77 78 0.0 8.7 0.00 0.00 0.00 39 1009.0
20260503204705 77 8 4.3 8.7 0.00 0.00 0.00 38 1009.4
20260503204151 78 331 0.0 7.0 0.00 0.00 0.00 41 1009.4
20260503203641 77 340 0.0 7.0 0.00 0.00 0.00 38 1009.4
20260503203139 78 358 0.0 11.3 0.00 0.00 0.00 39 1009.7
20260503202630 77 323 1.7 11.3 0.00 0.00 0.00 38 1009.7
20260503202112 77 94 0.0 11.3 0.00 0.00 0.00 42 1009.7
20260503201855 77 334 2.6 8.7 0.00 0.00 0.00 38 1009.7
20260503201103 77 348 0.9 8.7 0.00 0.00 0.00 40 1010.0
20260503200553 77 348 5.2 8.7 0.00 0.00 0.00 40 1010.4
20260503195535 77 142 0.0 7.0 0.00 0.00 0.00 42 1010.4
20260503195340 77 343 1.7 7.0 0.00 0.00 0.00 41 1010.8
20260503194513 77 31 4.3 7.0 0.00 0.00 0.00 42 1011.1
20260503194017 76 6 3.5 4.3 0.00 0.00 0.00 45 1011.1
20260503193502 76 108 0.0 8.7 0.00 0.00 0.00 42 1011.1
20260503192950 75 8 2.6 8.7 0.00 0.00 0.00 41 1011.5
20260503192446 76 262 0.0 7.0 0.00 0.00 0.00 43 1011.5
20260503191933 76 55 0.0 7.0 0.00 0.00 0.00 42 1011.8
20260503191433 76 330 0.0 7.0 0.00 0.00 0.00 41 1011.8
20260503190912 77 341 0.9 1.7 0.00 0.00 0.00 43 1012.2
20260503190359 76 41 0.9 8.7 0.00 0.00 0.00 44 1012.2
20260503185846 76 5 0.0 8.7 0.00 0.00 0.00 43 1012.2
20260503185338 76 146 0.0 8.7 0.00 0.00 0.00 42 1012.2
20260503184837 75 200 1.7 11.3 0.00 0.00 0.00 43 1012.2
20260503184338 74 258 0.0 11.3 0.00 0.00 0.00 40 1012.2
20260503183833 76 357 2.6 4.3 0.00 0.00 0.00 43 1012.5
20260503183331 76 201 0.0 4.3 0.00 0.00 0.00 43 1012.8
20260503182831 75 45 0.0 4.3 0.00 0.00 0.00 48 1012.8
20260503182312 74 41 0.0 7.0 0.00 0.00 0.00 41 1013.2
20260503181817 74 351 0.9 7.0 0.00 0.00 0.00 45 1012.8
20260503181300 73 15 1.7 4.3 0.00 0.00 0.00 43 1013.5
20260503180804 73 14 0.9 11.3 0.00 0.00 0.00 42 1013.5
20260503180258 73 340 3.5 11.3 0.00 0.00 0.00 42 1013.5
20260503175753 73 343 0.9 8.7 0.00 0.00 0.00 43 1013.9
20260503175238 73 219 0.0 8.7 0.00 0.00 0.00 44 1013.9
20260503174731 74 198 0.9 4.3 0.00 0.00 0.00 46 1014.2
20260503174231 73 350 0.0 11.3 0.00 0.00 0.00 45 1014.2
20260503173731 72 47 1.7 11.3 0.00 0.00 0.00 47 1014.2
20260503173226 72 131 0.0 7.0 0.00 0.00 0.00 49 1013.9
20260503172938 71 12 1.7 8.7 0.00 0.00 0.00 44 1014.2
20260503172204 71 316 3.5 8.7 0.00 0.00 0.00 45 1014.5
20260503171654 70 344 4.3 7.0 0.00 0.00 0.00 46 1014.5
20260503171153 69 84 0.0 7.0 0.00 0.00 0.00 48 1014.9
20260503170916 69 151 2.6 7.0 0.00 0.00 0.00 45 1014.9
20260503170158 70 350 0.0 7.0 0.00 0.00 0.00 44 1014.9